Location: *
(48.8489°N, 2.3218°E)
Time: 03:17:56
(UTC+00:00)

USA 267 - Pass Details

Date: 23 August 2019
Orbit: 1102 x 1106 km, 123.0° (Epoch: 17 September)

Event Time Altitude Azimuth Distance (km) Brightness Sun altitude
Rises 22:35:50 0° 78° (ENE) 3,922 6.1 -27.5°
Reaches altitude 10° 22:38:25 10° 72° (ENE) 2,965 5.5 -27.6°
Maximum altitude 22:44:32 44° 3° (N) 1,486 4.3 -28.0°
Drops below altitude 10° 22:50:39 10° 295° (WNW) 2,966 6.0 -28.3°
Sets 22:53:14 0° 289° (WNW) 3,924 6.6 -28.4°
